[[{"header":{"parameterUnit":"m.s-1","parameterCategory":1,"la1":30.2991,"la2":30.254,"lo1":-89.0895,"lo2":-89.0444,"dy":0.0017,"dx":0.0017,"nx":28,"ny":28,"refTime":"2025-09-07T09:00:00:Z","depth":0,"parameterNumber":2,"parameterNumberName":"U-component_of_WINDS"},"data":[0,0,0,0,0,0,0,0,0,0,0,0,0,0,0,0,0,0,0,0,0,0,0,0,0,0,0,0,0,0,0,0,0,0,0,0,0,0,0,0,0,0,0,0,0,0,0,0,0,0,0,0,0,0,0,0,0,0,-2.2295,-2.2295,0,-2.2331,-2.2332,-2.2332,-2.2277,-2.2275,-2.2273,-2.2271,-2.231,-2.2312,-2.2315,0,0,0,0,0,0,0,0,0,0,0,0,0,-2.2179,-2.2181,-2.2295,-2.2295,-2.2296,-2.2331,-2.2332,-2.2332,-2.2277,-2.2275,-2.2273,-2.227,-2.2309,-2.2312,-2.2315,0,0,0,0,0,0,0,0,0,0,0,0,0,-2.2224,-2.2182,-2.2295,-2.2273,-2.2271,-2.2331,-2.2332,-2.2332,-2.2278,-2.2275,-2.2272,-2.2269,-2.2308,-2.2312,-2.2316,-2.24,0,0,-2.2329,-2.2331,0,0,0,0,0,0,0,0,-2.2221,-2.2228,-2.2275,-2.2274,-2.2273,-2.2297,-2.2305,-2.2355,-2.2278,-2.2275,-2.2271,-2.2268,-2.2308,-2.2312,-2.2325,-2.2402,-2.2403,-2.2329,-2.2332,-2.2333,-2.2335,0,0,0,0,0,0,0,-2.2218,-2.2226,-2.2309,-2.2276,-2.2275,-2.2261,-2.2264,-2.2314,-2.2307,-2.2275,-2.2271,-2.2276,-2.2306,-2.2321,-2.2325,-2.2404,-2.2329,-2.2333,-2.2335,-2.2337,-2.2552,-2.2555,0,0,0,0,0,0,-2.2218,-2.2224,-2.2308,-2.231,-2.2239,-2.2266,-2.2269,-2.2292,-2.2307,-2.2306,-2.2279,-2.2274,-2.2315,-2.2321,-2.2327,-2.2427,-2.2333,-2.2337,-2.234,-2.2549,-2.2553,-2.2556,0,0,0,0,0,0,-2.2215,-2.2226,-2.2307,-2.2266,-2.2275,-2.2271,-2.2297,-2.2294,-2.2309,-2.2309,-2.2308,-2.2295,-2.2313,-2.2321,-2.2382,-2.2427,-2.2339,-2.2343,-2.2545,-2.255,-2.2554,-2.2628,0,0,0,0,0,0,-2.2212,-2.2225,-2.2257,-2.2267,-2.2278,-2.2362,-2.2299,-2.2297,-2.2316,-2.231,-2.2324,-2.2324,-2.2311,-2.2376,-2.2386,-2.2432,-2.2346,-2.2541,-2.2547,-2.2553,-2.2621,-2.2634,-2.2646,0,0,0,0,0,-2.2208,-2.2276,-2.2259,-2.2269,-2.2317,-2.2364,-2.2371,-2.2355,-2.232,-2.2352,-2.2352,-2.2323,-2.242,-2.2383,-2.2394,-2.2441,-2.2538,-2.2545,-2.2552,-2.2616,-2.2632,-2.2645,0,0,0,0,0,0,-2.2271,-2.2277,-2.2258,-2.2331,-2.2348,-2.2355,-2.2395,-2.2372,-2.2399,-2.2392,-2.2372,-2.2375,-2.2442,-2.2447,-2.2405,-2.2524,-2.2473,-2.2483,-2.2518,-2.2533,-2.2545,-2.2543,-2.235,0,0,0,0,0,-2.2294,-2.2331,-2.2334,-2.2399,-2.2408,-2.24,-2.242,-2.2406,-2.2423,-2.243,-2.2434,-2.2452,-2.2486,-2.251,-2.2541,-2.2621,-2.2624,-2.2659,-2.2671,-2.2681,-2.269,-2.2734,-2.275,-2.2579,-2.2579,-2.2579,0,0,-2.2341,-2.2348,-2.2373,-2.2411,-2.2423,-2.2463,-2.2406,-2.2451,-2.2481,-2.2437,-2.2495,-2.2499,-2.2517,-2.2589,-2.262,-2.2596,-2.2738,-2.269,-2.2698,-2.2702,-2.2743,-2.2759,-2.2774,-2.2584,-2.2583,-2.2583,0,0,-2.2447,-2.2456,-2.2511,-2.2524,-2.2541,-2.2536,-2.2549,-2.256,-2.2561,-2.2619,-2.2587,-2.2622,-2.2681,-2.2696,-2.2711,-2.2823,-2.2798,-2.2833,-2.2898,-2.2941,-2.2954,-2.2966,-2.3008,-2.3022,-2.2842,-2.2842,-2.2842,0,-2.2504,-2.2562,-2.2543,-2.259,-2.2608,-2.2569,-2.2625,-2.2638,-2.2665,-2.2679,-2.265,-2.2724,-2.2734,-2.2809,-2.2836,-2.2849,-2.2864,-2.2833,-2.2954,-2.2965,-2.2976,-2.3016,-2.3031,-2.2847,-2.2846,-2.2846,-2.2845,0,-2.2631,-2.2672,-2.2715,-2.2742,-2.2765,-2.2816,-2.2805,-2.283,-2.2814,-2.2811,-2.2872,-2.2881,-2.2915,-2.2931,-2.2916,-2.3004,-2.2988,-2.2957,-2.2907,-2.2997,-2.3034,-2.3049,-2.2853,-2.2851,-2.285,-2.2849,0,0,-2.278,-2.2796,-2.2812,-2.2824,-2.284,-2.2872,-2.2921,-2.2954,-2.2977,-2.2996,-2.3038,-2.3089,-2.306,-2.3078,-2.3064,-2.3101,-2.3191,-2.3065,-2.3065,-2.309,-2.329,-2.3315,-2.3333,-2.3173,-2.3176,-2.3178,-2.3289,0,-2.2888,-2.2973,-2.2957,-2.3041,-2.308,-2.3043,-2.3086,-2.3101,-2.31,-2.3132,-2.3131,-2.3168,-2.3126,-2.3137,-2.3172,-2.3172,-2.3231,-2.3164,-2.3213,-2.3215,-2.3212,-2.3352,-2.3378,-2.3483,-2.3303,-2.3305,-2.3307,0,-2.3025,-2.305,-2.3138,-2.3149,-2.3164,-2.3203,-2.3232,-2.3263,-2.3279,-2.3276,-2.3295,-2.3274,-2.3324,-2.3271,-2.334,-2.3295,-2.3314,-2.3317,-2.3321,-2.3326,-2.3268,-2.3363,-2.3515,-2.3532,-2.3329,-2.3327,-2.3326,0,-2.3127,-2.3183,-2.3243,-2.3254,-2.3267,-2.3296,-2.3303,-2.3316,-2.3337,-2.3362,-2.3375,-2.3405,-2.3423,-2.3447,-2.3435,-2.3397,-2.3506,-2.3452,-2.3506,-2.3507,-2.3533,-2.3532,-2.3692,-2.3541,-2.3541,-2.3541,-2.3541,0,-2.325,-2.3306,-2.3289,-2.3326,-2.3388,-2.3368,-2.3429,-2.3432,-2.3444,-2.3481,-2.345,-2.3486,-2.3467,-2.3502,-2.3492,-2.3552,-2.3559,-2.3558,-2.3556,-2.3563,-2.3563,-2.3576,-2.357,-2.3545,-2.3544,-2.3543,-2.3543,0,-2.3376,-2.3366,-2.343,-2.3437,-2.344,-2.3485,-2.3492,-2.3527,-2.3523,-2.357,-2.358,-2.3574,-2.3613,-2.3603,-2.3645,-2.3639,-2.3715,-2.3702,-2.371,-2.3707,-2.3762,-2.3758,-2.3939,-2.3963,-2.3794,-2.3796,-2.3797,0,-2.3456,-2.3498,-2.351,-2.3533,-2.3542,-2.3579,-2.36,-2.3582,-2.3605,-2.3626,-2.3659,-2.3695,-2.3723,-2.3787,-2.3787,-2.382,-2.3808,-2.3869,-2.3813,-2.3819,-2.3812,-2.381,-2.3815,-2.3881,-2.3883,-2.3885,-2.3886,0,-2.36,-2.3594,-2.3625,-2.3655,-2.368,-2.3703,-2.3723,-2.3743,-2.3726,-2.3754,-2.3793,-2.3815,-2.3858,-2.3895,-2.3925,-2.3932,-2.3908,-2.3903,-2.3918,-2.3927,-2.393,-2.3931,-2.3743,-2.39,-2.3899,-2.3898,-2.3897,-2.3896,-2.3707,-2.3743,-2.3757,-2.3793,-2.3806,-2.3825,-2.3859,-2.3859,-2.3891,-2.3925,-2.3912,-2.3958,-2.3973,-2.401,-2.4021,-2.4057,-2.4033,-2.4054,-2.406,-2.4066,-2.4074,-2.3923,-2.4061,-2.4061,-2.4061,-2.406,-2.406,0,-2.3851,-2.3859,-2.3892,-2.392,-2.3949,-2.3921,-2.3942,-2.3968,-2.4008,-2.4024,-2.4052,-2.4098,-2.4134,-2.4136,-2.4169,-2.4197,-2.4187,-2.4207,-2.4206,-2.4208,-2.4091,-2.4076,-2.4215,-2.4215,-2.4215,-2.4215,-2.4215,-2.4215,-2.393,-2.399,-2.3985,-2.4051,-2.4058,-2.4102,-2.4116,-2.4134,-2.4147,-2.4199,-2.4229,-2.4229,-2.424,-2.4274,-2.4305,-2.4305,-2.432,-2.4345,-2.434,-2.4232,-2.4216,-2.4202,-2.4188,-2.4347,-2.4348,-2.4455,-2.4456,-2.4456]},{"header":{"parameterUnit":"m.s-1","parameterCategory":1,"la1":30.2991,"la2":30.254,"lo1":-89.0895,"lo2":-89.0444,"dy":0.0017,"dx":0.0017,"nx":28,"ny":28,"refTime":"2025-09-07T09:00:00:Z","depth":0,"parameterNumber":3,"parameterNumberName":"V-component_of_WINDS"},"data":[0,0,0,0,0,0,0,0,0,0,0,0,0,0,0,0,0,0,0,0,0,0,0,0,0,0,0,0,0,0,0,0,0,0,0,0,0,0,0,0,0,0,0,0,0,0,0,0,0,0,0,0,0,0,0,0,0,0,-4.8993,-4.8993,0,-4.9006,-4.9006,-4.9006,-4.8951,-4.8949,-4.8947,-4.8946,-4.8957,-4.8959,-4.8961,0,0,0,0,0,0,0,0,0,0,0,0,0,-4.8916,-4.8918,-4.8993,-4.8993,-4.8993,-4.9006,-4.9006,-4.9006,-4.8951,-4.8949,-4.8947,-4.8945,-4.8957,-4.8959,-4.8961,0,0,0,0,0,0,0,0,0,0,0,0,0,-4.8941,-4.8918,-4.8993,-4.8967,-4.8965,-4.9006,-4.9006,-4.9006,-4.8951,-4.8949,-4.8946,-4.8944,-4.8956,-4.8959,-4.8961,-4.9027,0,0,-4.897,-4.8971,0,0,0,0,0,0,0,0,-4.894,-4.8944,-4.897,-4.8969,-4.8966,-4.8974,-4.8983,-4.9013,-4.8952,-4.8956,-4.8946,-4.8943,-4.8965,-4.8967,-4.8974,-4.9028,-4.9028,-4.897,-4.8972,-4.8973,-4.8974,0,0,0,0,0,0,0,-4.8938,-4.8943,-4.8998,-4.8971,-4.8968,-4.8954,-4.8955,-4.8989,-4.8974,-4.8956,-4.8952,-4.8954,-4.8963,-4.8972,-4.8974,-4.9029,-4.897,-4.8972,-4.8974,-4.8975,-4.9137,-4.9139,0,0,0,0,0,0,-4.894,-4.8942,-4.8997,-4.8998,-4.8947,-4.8957,-4.8958,-4.8974,-4.8974,-4.8971,-4.8956,-4.8952,-4.8968,-4.8971,-4.8975,-4.9052,-4.8973,-4.8975,-4.8977,-4.9134,-4.9137,-4.914,0,0,0,0,0,0,-4.8939,-4.8946,-4.8997,-4.8969,-4.8975,-4.8961,-4.8979,-4.8976,-4.8984,-4.8974,-4.8971,-4.8968,-4.8967,-4.8971,-4.9015,-4.9051,-4.8977,-4.8979,-4.9131,-4.9135,-4.9139,-4.9207,0,0,0,0,0,0,-4.8937,-4.8946,-4.8971,-4.897,-4.8976,-4.9038,-4.8982,-4.8978,-4.899,-4.8984,-4.8984,-4.8982,-4.8965,-4.9011,-4.9018,-4.9054,-4.8981,-4.9128,-4.9133,-4.9138,-4.9201,-4.9213,-4.9223,0,0,0,0,0,-4.8934,-4.8989,-4.8973,-4.898,-4.9008,-4.904,-4.9043,-4.9023,-4.8993,-4.9018,-4.9011,-4.8982,-4.9046,-4.9016,-4.9023,-4.9061,-4.9125,-4.9131,-4.9137,-4.9197,-4.9211,-4.9222,0,0,0,0,0,0,-4.8994,-4.8989,-4.897,-4.9027,-4.9034,-4.9031,-4.9062,-4.9039,-4.9055,-4.9048,-4.9022,-4.9022,-4.9071,-4.907,-4.9036,-4.9124,-4.908,-4.9088,-4.9123,-4.9136,-4.9147,-4.9146,-4.8984,0,0,0,0,0,-4.9014,-4.9041,-4.9035,-4.9085,-4.909,-4.9076,-4.9089,-4.9073,-4.9079,-4.9082,-4.9078,-4.9085,-4.9107,-4.9121,-4.9141,-4.9201,-4.92,-4.923,-4.9241,-4.925,-4.9256,-4.9288,-4.9301,-4.916,-4.916,-4.916,0,0,-4.9055,-4.9055,-4.9074,-4.9097,-4.9101,-4.9129,-4.9078,-4.911,-4.9131,-4.9086,-4.9128,-4.9126,-4.9131,-4.9184,-4.9207,-4.9185,-4.9295,-4.9257,-4.9264,-4.9266,-4.9296,-4.9309,-4.9321,-4.9164,-4.9163,-4.9162,0,0,-4.9144,-4.9148,-4.919,-4.9195,-4.9202,-4.9192,-4.9203,-4.9202,-4.9199,-4.9241,-4.9208,-4.9232,-4.927,-4.9275,-4.9283,-4.9375,-4.9348,-4.9382,-4.9437,-4.9468,-4.9479,-4.9489,-4.9521,-4.9533,-4.9388,-4.9389,-4.9389,0,-4.9194,-4.9236,-4.9214,-4.9249,-4.926,-4.9222,-4.9264,-4.927,-4.9282,-4.929,-4.9265,-4.9313,-4.9314,-4.9367,-4.9389,-4.9397,-4.9407,-4.9381,-4.9479,-4.9489,-4.9498,-4.9528,-4.9541,-4.9393,-4.9392,-4.9392,-4.9391,0,-4.9297,-4.9326,-4.936,-4.9374,-4.9388,-4.9427,-4.941,-4.9427,-4.941,-4.9402,-4.9445,-4.9445,-4.9464,-4.9475,-4.9458,-4.9526,-4.9512,-4.9484,-4.9439,-4.9516,-4.9544,-4.9556,-4.9398,-4.9397,-4.9396,-4.9395,0,0,-4.9424,-4.9426,-4.9439,-4.9445,-4.945,-4.9472,-4.9508,-4.9527,-4.9542,-4.9552,-4.9581,-4.9615,-4.9588,-4.9597,-4.9581,-4.9608,-4.9681,-4.9576,-4.9576,-4.9595,-4.9755,-4.9777,-4.9791,-4.9663,-4.9665,-4.9667,-4.9755,0,-4.9511,-4.9574,-4.9556,-4.9619,-4.9645,-4.961,-4.9641,-4.9647,-4.9641,-4.9662,-4.9655,-4.9679,-4.9642,-4.9648,-4.9673,-4.9666,-4.9712,-4.966,-4.969,-4.9691,-4.9689,-4.9806,-4.9828,-4.9911,-4.9766,-4.9768,-4.9769,0,-4.9622,-4.9637,-4.9703,-4.9704,-4.9714,-4.9743,-4.9759,-4.978,-4.9786,-4.9779,-4.979,-4.9768,-4.9802,-4.9758,-4.9805,-4.977,-4.9781,-4.9779,-4.9782,-4.9784,-4.9735,-4.9811,-4.9937,-4.995,-4.9786,-4.9785,-4.9784,0,-4.9708,-4.9745,-4.9789,-4.9795,-4.9797,-4.9818,-4.982,-4.9824,-4.9836,-4.985,-4.9858,-4.9875,-4.9885,-4.9899,-4.9881,-4.9851,-4.9931,-4.9885,-4.9926,-4.9927,-4.9945,-4.9944,-5.0075,-4.9952,-4.9952,-4.9952,-4.9952,0,-4.9808,-4.9849,-4.9828,-4.9855,-4.9901,-4.9879,-4.9924,-4.9921,-4.9925,-4.995,-4.992,-4.9944,-4.992,-4.9942,-4.9929,-4.997,-4.9974,-4.997,-4.9966,-4.9973,-4.9973,-4.9979,-4.9973,-4.9955,-4.9955,-4.9954,-4.9953,0,-4.9912,-4.9899,-4.9945,-4.9943,-4.9944,-4.9977,-4.9975,-5.0,-4.9992,-5.0024,-5.0031,-5.0018,-5.0042,-5.0026,-5.0051,-5.0041,-5.0095,-5.0083,-5.0094,-5.0091,-5.0133,-5.0129,-5.0272,-5.029,-5.0156,-5.0157,-5.0158,0,-4.9976,-5.0008,-5.0009,-5.0025,-5.0029,-5.0054,-5.0067,-5.0046,-5.0061,-5.007,-5.0094,-5.0115,-5.0132,-5.0172,-5.0165,-5.0183,-5.0171,-5.022,-5.0174,-5.018,-5.0172,-5.017,-5.0173,-5.0229,-5.0231,-5.0232,-5.0233,0,-5.0092,-5.0084,-5.0105,-5.0123,-5.014,-5.0153,-5.0164,-5.0178,-5.0157,-5.0175,-5.02,-5.0213,-5.0238,-5.026,-5.0275,-5.0276,-5.0251,-5.0248,-5.0258,-5.0266,-5.0271,-5.0269,-5.0119,-5.0245,-5.0244,-5.0243,-5.0242,-5.0242,-5.0178,-5.0204,-5.021,-5.0234,-5.024,-5.025,-5.0274,-5.0269,-5.0289,-5.0309,-5.0295,-5.0325,-5.0329,-5.0348,-5.0352,-5.0374,-5.0354,-5.0369,-5.0373,-5.0377,-5.0383,-5.0267,-5.0377,-5.0376,-5.0376,-5.0376,-5.0375,0,-5.0292,-5.0294,-5.0316,-5.0333,-5.0351,-5.0327,-5.0337,-5.0354,-5.0381,-5.0388,-5.0405,-5.0434,-5.0455,-5.0449,-5.0468,-5.0487,-5.0476,-5.0493,-5.0491,-5.0492,-5.04,-5.0389,-5.0501,-5.0501,-5.0501,-5.0501,-5.0501,-5.0501,-5.0354,-5.0397,-5.039,-5.0436,-5.0437,-5.0466,-5.0474,-5.0484,-5.0489,-5.0523,-5.0541,-5.0537,-5.0539,-5.0557,-5.0576,-5.0573,-5.0582,-5.0603,-5.0596,-5.051,-5.0498,-5.0486,-5.0476,-5.0605,-5.0605,-5.0686,-5.0687,-5.0687]}]]